COSMOS 2251 DEB, 33795

Orbit data source: Space-Track

COSMOS 2251 DEB, 33795 is space debris in LEO originally from a launch on Wed, 16 Jun 1993 UTC launched from the Plesetsk Missile And Space Complex (PKMTR). The debris from Iridium 33, an American commercial communications satellite, has been tracked extensively since its accidental collision with the defunct Russian satellite Cosmos 2251 in 2009. This event, occurring at high speed in low Earth orbit (LEO), generated thousands of pieces of space debris, significantly increasing the risk of further collisions. The Iridium 33 debris cloud has impacted space traffic management and orbital debris mitigation strategies, making it a subject of ongoing study in space situational awareness.

Loading next visibility...
Identifier
33795, 1993-036AL
Orbit
LEO
Country
Flag of CISCIS
Related business
Manufacturer
Unknown
Mission
Spacecraft
Bus & Motor
Unknown
Mass
Unknown
Launch date (UTC)
1993-06-16 (33 years ago)
Launch vehicle
Unknown
Launch site
Plesetsk Missile And Space Complex (PKMTR)
Object type
Payload
Rocket body
Debris
Shape & HBR
Unknown shape, 0.2 m
Radar Cross Section
Small (<0.1 m²)

Expand to show TLE details & history
Last TLE update: 9 hours ago

TLE from 9 hours ago
0 COSMOS 2251 DEB
1 33795U 93036AL  26120.18203201  .00022869  00000-0  12763-2 0  9994
2 33795  74.0330 151.1877 0032001 208.0436 216.7553 15.13030773921107
Epoch: 2026-04-30T04:22Z
TLE epoch observation values (Epoch: 2026-04-30T04:22:07.565Z)
Latitude
60.37491°
Longitude
-102.44965°
Altitude
554.636 km
Speed
7.581 km/s
True Right ascension
12h 04m 51s
True Declination
60° 13' 21"
Sunlit
Object was in daylight at epoch
Visualization orbit readout
Latitude
Unknown
Longitude
Unknown
Altitude
Unknown
Speed
Unknown
Apparent Right ascension
Unknown
Apparent Declination
Unknown
Sunlit
N/A
Visualization observer readout
Local Sidereal Time
20:57:49
Azimuth
Unknown
Elevation
Unknown
Doppler factor
Unknown
Orbital elements
Apogee altitude
546.592 km
Perigee altitude
502.414 km
Semi-major axis
6,902.64 km
Eccentricity
0.0032
Inclination
74.033°
RAAN
151.1877°
Arg. of periapsis
208.0436°
True anomaly
216.53657°
Mean anomaly
216.7553°
Eccentric anomaly
216.64586°
Mean motion
3.7846 °/min
Orbital period
95.12 mins
BSTAR
0.0012763
Loading maneuver chart data...
Computing Atmospheric mass density...

Documentation

Showing up to 5 results
|